Weather History for Kahului, HI

Change the Weather History Date:

Saturday, February 4, 2012

  Actual Average Record
Temperature  
Mean Temperature 71 °F 72 °F  
Max Temperature 82 °F 81 °F 87 °F (1950)
Min Temperature 59 °F 63 °F 54 °F (1993)
Degree Days  
Heating Degree Days 0 0  
Month to date heating degree days 0 0  
Since 1 July heating degree days 0 0  
Cooling Degree Days 6 7  
Month to date cooling degree days 25 28  
Year to date cooling degree days 276 245  
Growing Degree Days 20 (Base 50)    
Moisture  
Dew Point 60 °F    
Average Humidity 68    
Maximum Humidity 84    
Minimum Humidity 51    
Precipitation  
Precipitation 0.00 in 0.07 in 2.02 in (1979)
Month to date precipitation 0.00 0.31  
Year to date precipitation 0.00 3.18  
Snow  
Snow 0.00 in - - ()
Month to date snowfall 0.0  
Since 1 July snowfall 0.0  
Snow Depth 0.00 in    
Sea Level Pressure  
Sea Level Pressure 29.88 in    
Wind  
Wind Speed 10 mph (South)    
Max Wind Speed 24 mph    
Max Gust Speed 30 mph    
Visibility 10 miles    
Events      
T = Trace of Precipitation, MM = Missing Value Source: NWS Daily Summary

Daily Weather History Graph

Daily Weather History Graph

Search for Another Location

Airport:

Trip Planner

Search our weather history database for the weather conditions in past years. The results will help you decide how hot, cold, wet, or windy it might be!

Date:

Astronomy

Feb. 04, 2012 Rise Set
Actual Time 7:01 AM HST 6:18 PM HST
Civil Twilight 6:38 AM HST 6:41 PM HST
Nautical Twilight 6:11 AM HST 7:07 PM HST
Astronomical Twilight 5:45 AM HST 7:33 PM HST
Moon 3:39 PM HST (2/4) 4:21 AM HST (2/4)
Length of Visible Light 12h 02m
Length of Day
11h 16m
Waxing Gibbous, 90% of the Moon is Illuminated
Feb 4
Waxing Gibbous
Feb 7
Full
Feb 14
Last Quarter
Feb 21
New
Feb 29
First Quarter

Hourly Weather History & Observations

Time (HST) Temp. Heat Index Dew Point Humidity Pressure Visibility Wind Dir Wind Speed Gust Speed Precip Events Conditions
12:54 AM 64.0 °F - 57.0 °F 78% 29.94 in 10.0 mi South 5.8 mph - N/A   Clear
1:54 AM 64.0 °F - 57.0 °F 78% 29.92 in 10.0 mi SSW 5.8 mph - N/A   Clear
2:54 AM 64.9 °F - 57.0 °F 75% 29.91 in 10.0 mi SW 6.9 mph - N/A   Clear
3:54 AM 62.1 °F - 55.0 °F 78% 29.90 in 10.0 mi South 5.8 mph - N/A   Clear
4:54 AM 61.0 °F - 55.0 °F 81% 29.89 in 10.0 mi Calm Calm - N/A   Clear
5:54 AM 60.1 °F - 54.0 °F 80% 29.90 in 10.0 mi South 5.8 mph - N/A   Clear
6:54 AM 62.1 °F - 55.9 °F 80% 29.91 in 10.0 mi South 8.1 mph - N/A   Clear
7:54 AM 64.9 °F - 59.0 °F 81% 29.92 in 10.0 mi SSW 3.5 mph - N/A   Clear
8:54 AM 73.9 °F - 62.1 °F 66% 29.93 in 10.0 mi SW 5.8 mph - N/A   Clear
9:54 AM 78.1 °F - 61.0 °F 56% 29.93 in 10.0 mi South 13.8 mph - N/A   Clear
10:54 AM 80.1 °F 81.1 °F 61.0 °F 52% 29.90 in 10.0 mi South 16.1 mph 20.7 mph N/A   Clear
11:54 AM 81.0 °F 82.2 °F 63.0 °F 54% 29.88 in 10.0 mi South 18.4 mph - N/A   Clear
12:54 PM 81.0 °F 82.2 °F 63.0 °F 54% 29.84 in 10.0 mi SSW 19.6 mph 26.5 mph N/A   Partly Cloudy
1:54 PM 81.0 °F 82.2 °F 63.0 °F 54% 29.83 in 10.0 mi South 20.7 mph - N/A   Partly Cloudy
2:54 PM 81.0 °F 81.9 °F 62.1 °F 52% 29.82 in 10.0 mi South 17.3 mph 25.3 mph N/A   Scattered Clouds
3:54 PM 81.0 °F 82.2 °F 63.0 °F 54% 29.82 in 10.0 mi South 13.8 mph 19.6 mph N/A   Scattered Clouds
4:54 PM 80.1 °F 81.2 °F 62.1 °F 54% 29.82 in 10.0 mi SE 4.6 mph - N/A   Partly Cloudy
5:54 PM 77.0 °F - 63.0 °F 62% 29.83 in 10.0 mi SSE 3.5 mph - N/A   Scattered Clouds
6:54 PM 75.9 °F - 64.0 °F 67% 29.84 in 10.0 mi Calm Calm - N/A   Partly Cloudy
7:54 PM 73.9 °F - 63.0 °F 68% 29.86 in 10.0 mi Calm Calm - N/A   Partly Cloudy
8:54 PM 72.0 °F - 63.0 °F 73% 29.88 in 10.0 mi SSW 3.5 mph - N/A   Partly Cloudy
9:54 PM 69.1 °F - 61.0 °F 75% 29.88 in 10.0 mi WSW 4.6 mph - N/A   Clear
10:54 PM 68.0 °F - 61.0 °F 78% 29.88 in 10.0 mi SSW 4.6 mph - N/A   Clear
11:54 PM 68.0 °F - 62.1 °F 81% 29.87 in 10.0 mi SSE 8.1 mph - N/A   Clear